User: anonymous   Login
Location: Unspecified
(0.0000°N, 0.0000°E)
Time: 05:46:57
(UTC+00:00)
Language:

TBA - TO BE ASSIGNED - Orbit

View from above orbital plane
View from above orbital plane
View from above satellite
View from above satellite

Ground track
Ground track

The orbit is defined by the following mean orbital elements,

1 68649U          26144.78333637 +.00000000 +00000-0 +40695-4 0 00001
2 68649  88.9875 323.3927 0009001  64.9511 295.2582 13.65684381    03
Epoch (UTC): 24 May 2026 18:48:00
Eccentricity: 0.0009001
inclination: 88.9875°
perigee height: 1008 km
apogee height: 1022 km
right ascension of ascending node: 323.3927°
argument of perigee: 64.9511°
revolutions per day: 13.65684381
mean anomaly at epoch: 295.2582°

The dashed part of the orbit path shows where the satellite is in the earth's shadow,  

DLR